STARLINK-1032, 44737

Orbit data source: Space-Track

STARLINK-1032, 44737 is a payload satellite owned by SpaceX/Seattle (US) in LEO that was launched on Mon, 11 Nov 2019 UTC via an FALCON 9 launch vehicle from the Air Force Eastern Test Range (AFETR). Payloads include a variety of satellites, spacecraft, and rockets equipped with specific instruments for various scientific and technological missions. These include communications satellites like Starlink; space stations such as the ISS; scientific satellites like the Hubble; Earth observation satellites from companies like Planet Labs, Umbra, and HawkEye 360; GPS; miniature CubeSats for education and research; and military/defense satellites.

Loading next visibility...
STARLINK-1032 details
Identifier
44737, 2019-074AA
Orbit
LEO
Last TLE update15 hours ago
Origin
Flag of USSpaceX/Seattle (US)
ManufacturerSpaceX/Seattle
MissionPartially operational Commercial Communications
Bus & MotorSTARLINK, Unknown motor
Mass260 kg wet, ~248 kg dry
Launch date (UTC)
2019-11-11 (5 years ago)
Launch vehicle
FALCON 9
Launch site
Air Force Eastern Test Range (AFETR)
Object type
Payload
Rocket body
Debris
Shape & HBRBox + 1 Pan, 8.86 m
Radar Cross Section13.562 m², Large (>1 m²)

Expand to show TLE details & history

TLE from 15 hours ago
0 STARLINK-1032
1 44737U 19074AA  25045.00003472  .00189325  00000-0  10972-2 0  9997
2 44737  53.0476 114.6109 0007024  18.7403 357.8053 15.77467101  5926
Epoch: 2025-02-14T00:00Z
Definitive object data (Epoch: 2025-02-14T00:00:02.999Z)
Latitude13.1542°
Longitude-19.60183°
Altitude333.052 km
Speed7.714 km/s
True Right ascension08h 18m 42s
True Declination13° 04' 24"
Sunlit
Object was in full shadow at TLE epoch
Visualization TLE readout
Latitude-41.3025°
Longitude-73.86308°
Altitude349.483 km
Speed7.7 km/s
Apparent Right ascension05h 06m 59s
Apparent Declination-40° 37' 18"
Sunlit
Object is in daylight
Visualization observer readout
Local Sidereal Time17:33:09
Azimuth100.154° ESE
Elevation-84.961°
Doppler factor1
Orbital elements
Apogee altitude342.617 km
Perigee altitude333.183 km
Semi-major axis6,716.037 km
Eccentricity0.0007024
Inclination53.0476°
RAAN114.6109°
Arg. of periapsis18.7403°
True anomaly357.80221°
Mean anomaly357.8053°
Eccentric anomaly357.80376°
Mean motion3.94342 °/min
BSTAR0.0010972
Orbital period91.29 mins
Loading maneuver chart data...

STARLINK-1032 Visibility forecast

Observer location: undefined°, undefined

Span
Click to sort rows by Start time (UTC) header in descending order
Start Az.
Max El. time (UTC)
Max El. Az.
Max El.
End time (UTC)
End Az.
4 mins2025-02-15 06:30:06.236Z198.678° SSW2025-02-15 06:32:06.236Z153.556° SSE26.472°2025-02-15 06:34:06.236Z79.765° E
|